Wetbulb
47.92 50.02 51.80 53.70 52.98 53.16 53.08 58.21 58.31 58.34 58.22 57.40 56.81 56.36 56.06 56.78 57.10 57.79 58.31 57.76 57.57 57.38 55.44 54.85 54.57 53.85 52.39 51.64 50.88 50.76 50.41 50.19 51.13 49.29 49.49 50.05 50.84 50.22 51.81 52.85 52.88 52.71 53.56
45.85 47.68 50.02 52.28 54.02 54.20 56.21 57.33 58.65 58.85 58.83 58.66 58.18 57.89 57.14 57.55 57.93 58.49 58.33 58.51 58.14 57.94 56.75 55.46 54.93 54.22 52.68 52.01 51.66 49.96 49.21 50.18 50.57 47.95 47.21 45.61 49.40 50.02 50.98 51.68 52.82 52.12 52.53
44.60 46.05 47.26 49.16 51.70 53.44 54.40 56.04 57.35 58.76 59.14 59.12 58.60 58.13 57.81 57.63 56.79 56.99 57.34 58.24 58.54 58.31 57.74 56.45 54.96 54.35 53.35 52.18 51.94 51.30 50.01 48.47 50.48 49.79 47.65 45.34 45.53 47.21 51.41 50.53 51.34 51.16 50.77
44.57 45.73 46.35 47.04 48.23 49.65 53.36 55.40 56.15 56.38 58.14 58.53 57.68 56.76 56.08 55.17 56.90 57.00 57.53 58.06 58.69 58.12 58.27 57.70 56.22 54.86 53.79 52.75 52.44 53.77 51.63 50.62 49.09 50.60 51.72 48.83 47.73 44.76 44.68 50.27 50.66 51.31 51.49
43.05 43.98 45.09 46.13 47.26 48.17 48.60 49.64 50.68 51.96 54.53 55.98 55.86 55.40 54.96 55.59 56.27 56.26 56.04 56.67 57.28 57.65 57.75 57.33 56.23 55.04 54.31 53.49 52.81 52.17 51.47 51.40 50.33 50.15 50.07 49.11 48.25 47.59 45.20 43.67 47.25 49.92 50.81
41.58 42.80 44.36 45.56 45.81 46.23 47.09 47.58 47.73 48.23 49.35 50.11 51.80 53.53 53.75 53.94 53.99 53.69 54.61 55.71 56.28 56.82 57.20 57.50 55.96 55.50 54.70 53.88 53.66 53.24 52.53 51.82 51.24 50.97 50.78 50.09 48.81 47.63 46.41 44.91 45.57 46.42 49.19
40.39 41.16 41.56 42.20 43.50 43.72 44.47 46.27 45.69 46.03 47.24 47.05 47.44 47.99 48.75 48.53 48.28 48.85 50.45 50.44 51.74 52.78 53.05 54.84 55.74 55.68 55.71 55.86 55.49 54.28 53.49 53.17 52.10 51.49 50.99 51.32 51.26 51.24 49.92 47.97 46.36 46.17 47.85
40.15 40.85 41.81 41.86 42.25 43.21 43.46 43.84 44.04 44.42 45.27 45.70 46.41 46.67 46.57 46.80 47.03 47.24 47.79 48.31 47.96 48.74 50.62 52.28 54.16 55.13 55.65 55.50 55.57 54.93 54.74 54.50 53.58 52.56 52.26 52.20 52.24 51.97 51.18 49.83 47.86 45.93 46.22
39.97 40.47 41.42 41.58 41.66 42.05 42.66 42.99 43.21 43.52 44.12 44.63 44.76 44.85 44.92 45.03 45.09 45.67 46.29 46.70 46.90 48.29 48.42 49.42 49.52 51.47 53.62 54.62 54.48 54.05 53.96 54.08 53.69 53.45 53.22 52.88 53.09 52.92 52.50 51.73 50.68 48.15 44.47
40.10 40.48 40.81 41.23 41.68 41.99 42.16 42.40 42.82 42.44 42.89 43.39 43.71 44.37 44.03 44.84 44.92 44.70 44.20 44.98 46.15 46.71 46.41 46.86 47.66 48.15 48.57 49.70 51.56 53.17 54.04 53.59 53.57 54.16 53.23 52.78 53.06 53.08 53.01 52.34 51.91 50.76 48.64
39.61 40.09 40.62 41.12 41.25 41.30 41.04 41.21 41.24 41.35 41.44 42.12 42.66 42.84 43.24 43.83 44.38 44.39 44.49 44.32 44.57 45.25 45.72 46.18 46.20 46.34 46.38 47.05 47.31 47.76 49.95 51.05 52.21 53.13 53.85 53.34 53.39 52.59 52.65 52.47 52.09 51.19 50.42
40.27 40.49 40.70 40.39 40.02 39.58 39.69 39.63 40.12 40.11 40.55 41.18 41.34 41.98 42.36 42.28 42.28 42.90 43.83 44.51 43.90 44.65 44.82 45.24 45.35 45.61 45.71 45.38 45.34 45.59 46.58 46.66 47.21 49.16 50.79 52.42 54.29 53.13 53.15 52.18 51.78 51.44 51.21
40.28 40.12 39.77 38.52 38.15 38.18 38.21 38.49 39.00 38.85 39.58 39.94 40.05 40.48 40.34 39.63 39.40 40.42 41.90 42.65 43.31 43.74 44.01 44.24 43.91 44.76 45.10 44.66 44.22 44.55 44.85 45.44 46.12 46.60 47.09 48.10 49.45 50.06 52.01 53.26 53.31 53.06 53.85
39.50 39.16 38.33 37.24 37.36 37.68 37.46 37.88 38.44 38.70 38.70 38.91 39.00 38.85 38.42 38.31 38.53 39.28 39.52 40.03 41.12 41.36 41.46 42.93 43.32 43.49 43.83 44.66 44.55 44.07 43.01 43.59 44.96 46.34 46.92 46.74 47.25 47.82 48.23 49.48 50.72 51.92 51.46
38.63 38.42 37.38 36.51 36.56 36.60 36.88 37.40 37.60 37.92 38.34 37.91 37.62 37.56 38.19 38.39 38.49 38.34 38.45 39.08 39.52 39.88 40.17 40.96 42.01 42.86 43.15 45.91 43.79 43.57 43.16 42.99 43.38 44.48 46.23 46.83 49.69 53.20 52.25 50.54 48.96 49.06 48.57
38.44 38.52 38.26 37.64 36.29 36.16 36.21 36.79 36.25 36.75 37.41 36.64 36.81 37.93 37.99 37.99 37.63 37.78 37.66 37.67 37.93 38.02 38.48 39.17 40.19 40.38 43.34 47.43 47.32 45.89 43.02 43.42 43.43 43.02 44.41 45.91 48.58 48.78 50.62 50.67 50.08 48.77 45.09
37.40 37.16 36.57 35.77 35.58 35.27 36.07 34.87 35.65 36.61 36.20 36.03 36.28 36.03 36.01 35.72 35.83 36.38 36.54 36.21 35.91 36.45 36.49 37.78 38.79 38.98 40.02 45.88 46.03 45.44 42.03 41.32 41.62 42.19 42.27 44.34 45.94 46.72 45.16 46.68 47.51 46.90 48.55
37.06 35.95 35.07 35.13 35.00 35.49 35.54 35.57 35.71 35.13 35.09 34.52 34.37 34.83 34.76 34.73 35.42 35.25 34.92 34.61 34.95 34.98 35.81 36.96 37.99 38.18 41.45 44.16 44.24 43.64 40.84 40.24 40.44 41.15 41.14 41.62 42.07 44.14 45.60 43.99 42.09 42.46 42.97
36.36 34.96 34.71 34.78 34.25 34.55 35.05 34.12 33.83 33.95 33.85 33.03 32.62 33.50 33.77 33.30 33.81 33.37 32.84 33.75 34.03 34.87 36.59 37.36 38.85 37.89 38.21 42.04 42.04 40.63 38.14 38.46 38.34 39.90 40.61 41.49 42.34 45.15 45.78 42.43 40.00 39.65 40.69
35.97 34.43 34.41 34.81 34.04 34.03 33.72 32.62 32.70 32.17 31.19 32.00 32.43 33.03 33.57 34.20 33.68 34.14 34.79 36.26 36.84 36.74 37.42 37.44 36.95 38.19 36.21 39.99 40.75 39.87 36.52 35.55 35.90 37.40 38.77 41.42 41.46 43.48 44.33 41.87 41.50 39.91 41.25
34.39 34.44 33.65 32.76 33.06 33.72 32.88 31.86 31.62 30.32 31.91 33.06 33.00 32.76 34.23 33.56 33.93 34.36 34.97 35.54 35.20 35.22 34.92 35.13 35.31 35.16 36.02 35.93 38.89 39.24 35.70 35.56 35.01 35.98 37.41 38.62 41.95 42.47 42.08 41.28 39.38 39.16 39.81
34.51 34.31 32.51 32.32 33.16 33.28 32.16 31.04 30.02 31.75 32.03 32.36 32.09 32.81 31.32 33.51 33.90 33.27 33.74 34.14 33.92 33.23 33.01 32.78 33.07 34.28 34.48 36.64 37.37 38.04 38.18 37.91 34.24 34.65 36.19 36.89 39.07 39.06 39.02 38.36 39.80 39.78 38.44
33.32 33.69 32.20 31.96 32.81 32.58 31.92 30.05 30.38 31.60 31.51 30.78 29.97 30.71 31.23 32.94 33.39 32.32 32.23 31.93 32.66 32.18 31.39 30.90 29.05 29.31 31.22 31.62 35.90 36.35 36.81 36.96 33.78 34.92 36.06 36.83 36.67 36.35 34.89 36.68 37.14 36.27 34.27
32.53 32.90 32.19 31.55 31.62 32.27 32.21 31.18 30.77 31.47 30.39 29.17 29.36 30.61 30.29 31.30 31.29 31.30 32.04 30.61 30.43 29.91 29.16 28.34 27.39 27.97 28.91 29.58 30.69 31.36 30.52 34.31 33.23 33.90 31.92 33.19 33.40 34.08 32.94 31.83 32.17 31.84 32.15
32.47 32.32 31.35 31.19 31.15 31.91 31.34 31.15 30.60 30.37 28.70 28.98 30.21 30.05 30.47 29.49 28.95 30.47 29.36 28.91 28.71 29.59 28.26 27.71 27.64 27.03 26.67 29.65 33.15 32.61 30.10 30.08 32.36 31.04 29.18 27.73 27.71 27.32 27.73 28.37 29.05 29.76 30.09
33.05 31.51 31.36 31.08 31.19 31.19 30.47 30.17 30.19 29.39 28.44 28.37 29.31 29.00 29.00 29.19 28.87 27.90 28.77 32.97 32.07 31.93 31.89 33.01 31.39 29.82 32.59 33.87 33.92 34.04 33.91 34.08 33.78 27.85 25.28 24.70 25.10 25.51 26.07 26.30 26.49 27.54 28.90
MSLP
1018.75 1018.50 1017.93 1017.17 1016.31 1015.56 1015.61 1015.47 1016.09 1016.78 1017.39 1017.93 1018.42 1018.70 1019.05 1019.02 1019.19 1019.20 1019.23 1019.42 1019.64 1019.85 1020.22 1020.49 1020.55 1020.53 1020.79 1020.95 1021.03 1021.10 1021.19 1021.23 1020.89 1021.05 1020.73 1019.95 1019.48 1019.52 1019.55 1019.49 1019.64 1019.73 1019.75
1019.67 1019.39 1018.94 1018.13 1017.20 1016.51 1015.97 1016.00 1016.29 1016.79 1017.33 1017.81 1018.16 1018.39 1018.66 1018.76 1018.81 1018.90 1019.07 1019.23 1019.40 1019.56 1019.85 1020.14 1020.35 1020.37 1020.66 1020.75 1020.81 1020.95 1021.33 1021.30 1020.82 1021.11 1021.13 1020.48 1019.72 1019.57 1019.22 1019.33 1019.46 1019.59 1019.54
1020.56 1020.34 1019.97 1019.48 1018.77 1018.04 1017.51 1017.11 1016.97 1017.09 1017.51 1017.91 1018.22 1018.47 1018.80 1019.03 1019.22 1019.19 1019.18 1019.10 1019.14 1019.31 1019.53 1019.79 1020.04 1020.15 1020.25 1020.52 1020.62 1020.68 1021.00 1021.36 1021.06 1020.82 1021.06 1020.91 1020.63 1020.13 1019.35 1019.30 1019.35 1019.35 1019.47
1021.33 1021.15 1020.94 1020.68 1020.23 1019.75 1019.03 1018.53 1018.30 1018.33 1018.38 1018.37 1018.77 1019.02 1019.50 1019.73 1019.51 1019.28 1019.25 1019.21 1019.05 1019.19 1019.31 1019.50 1019.73 1019.91 1020.05 1020.23 1020.24 1020.32 1020.55 1020.90 1021.22 1021.03 1020.66 1020.75 1020.93 1020.80 1020.53 1019.61 1019.36 1019.22 1019.30
1022.06 1022.00 1021.82 1021.68 1021.35 1020.97 1020.66 1020.22 1019.92 1019.71 1019.58 1019.46 1019.56 1019.71 1019.97 1019.88 1019.60 1019.50 1019.47 1019.46 1019.24 1019.08 1019.17 1019.28 1019.40 1019.61 1019.75 1019.85 1020.00 1020.05 1020.31 1020.49 1020.87 1020.95 1020.87 1020.80 1020.69 1020.75 1021.12 1020.78 1019.88 1019.50 1019.09
1022.69 1022.64 1022.64 1022.44 1022.21 1021.91 1021.65 1021.41 1021.32 1021.25 1021.00 1020.78 1020.63 1020.57 1020.65 1020.60 1020.51 1020.45 1020.37 1020.11 1019.76 1019.43 1019.23 1019.17 1019.28 1019.37 1019.51 1019.67 1019.72 1019.84 1020.02 1020.22 1020.31 1020.44 1020.60 1020.72 1020.80 1020.72 1020.75 1020.82 1020.29 1019.92 1019.06
1023.24 1023.27 1023.18 1023.20 1023.18 1022.85 1022.59 1022.32 1022.24 1022.19 1021.98 1021.86 1021.64 1021.44 1021.33 1021.26 1021.40 1021.31 1021.18 1020.94 1020.62 1020.34 1020.13 1019.87 1019.73 1019.54 1019.37 1019.29 1019.32 1019.62 1019.72 1019.84 1020.03 1020.15 1020.27 1020.15 1020.22 1020.12 1020.16 1020.31 1020.15 1019.93 1019.12
1023.63 1023.72 1023.71 1023.77 1023.67 1023.55 1023.40 1023.23 1023.09 1022.97 1022.68 1022.53 1022.41 1022.23 1022.06 1021.93 1021.84 1021.76 1021.65 1021.48 1021.28 1021.01 1020.67 1020.36 1019.99 1019.69 1019.43 1019.28 1019.21 1019.34 1019.44 1019.57 1019.65 1019.72 1019.73 1019.79 1019.71 1019.69 1019.71 1019.84 1020.07 1019.95 1019.53
1023.88 1024.05 1024.11 1024.16 1024.19 1024.14 1024.05 1023.94 1023.87 1023.73 1023.41 1023.18 1023.02 1022.88 1022.68 1022.53 1022.43 1022.28 1022.12 1021.94 1021.68 1021.30 1021.05 1020.71 1020.42 1020.04 1019.69 1019.42 1019.25 1019.35 1019.34 1019.34 1019.35 1019.28 1019.27 1019.32 1019.23 1019.28 1019.26 1019.29 1019.39 1019.68 1019.84
1024.04 1024.22 1024.36 1024.55 1024.59 1024.63 1024.69 1024.56 1024.43 1024.43 1024.27 1023.89 1023.61 1023.49 1023.35 1023.15 1022.99 1022.80 1022.58 1022.34 1022.04 1021.66 1021.48 1021.19 1020.77 1020.48 1020.13 1019.80 1019.55 1019.44 1019.31 1019.23 1019.11 1019.01 1018.96 1018.85 1018.80 1018.76 1018.76 1018.82 1018.84 1019.07 1019.25
1024.30 1024.47 1024.56 1024.75 1024.89 1025.13 1025.21 1025.25 1025.14 1025.14 1024.98 1024.69 1024.33 1024.08 1023.91 1023.75 1023.58 1023.39 1023.13 1022.81 1022.43 1022.08 1021.83 1021.57 1021.28 1020.99 1020.72 1020.32 1020.04 1019.81 1019.58 1019.41 1019.14 1018.88 1018.74 1018.62 1018.45 1018.42 1018.46 1018.44 1018.39 1018.59 1018.68
1024.38 1024.60 1024.86 1025.15 1025.36 1025.52 1025.63 1025.73 1025.73 1025.68 1025.57 1025.31 1025.04 1024.81 1024.66 1024.48 1024.30 1024.10 1023.76 1023.23 1022.95 1022.48 1022.13 1021.82 1021.64 1021.39 1021.12 1020.84 1020.57 1020.53 1020.30 1020.01 1019.67 1019.22 1018.89 1018.66 1018.38 1018.18 1017.98 1017.93 1018.09 1018.13 1018.00
1024.59 1024.93 1025.26 1025.62 1025.96 1026.07 1026.22 1026.25 1026.24 1026.22 1026.04 1025.78 1025.47 1025.25 1025.21 1025.15 1024.97 1024.70 1024.42 1023.96 1023.56 1023.09 1022.61 1022.25 1021.99 1021.69 1021.42 1021.21 1021.05 1020.96 1020.85 1020.54 1020.09 1019.61 1019.15 1018.79 1018.44 1018.33 1018.04 1017.83 1017.60 1017.48 1017.25
1024.99 1025.50 1025.92 1026.23 1026.49 1026.55 1026.75 1026.82 1026.74 1026.57 1026.44 1026.17 1025.91 1025.75 1025.64 1025.55 1025.38 1025.14 1024.90 1024.56 1024.09 1023.69 1023.28 1022.82 1022.38 1022.08 1021.75 1021.52 1021.45 1021.33 1021.12 1020.88 1020.45 1019.87 1019.27 1018.81 1018.49 1018.35 1018.16 1017.92 1017.81 1017.58 1017.55
1025.34 1025.91 1026.43 1026.71 1026.90 1027.00 1027.13 1027.17 1027.12 1026.95 1026.76 1026.57 1026.39 1026.16 1025.90 1025.77 1025.62 1025.43 1025.18 1024.94 1024.60 1024.16 1023.63 1023.23 1022.87 1022.47 1022.06 1021.77 1021.58 1021.45 1021.32 1021.06 1020.57 1019.98 1019.39 1018.82 1018.46 1018.17 1017.96 1017.83 1017.87 1017.85 1017.67
1025.60 1026.29 1026.81 1027.13 1027.32 1027.41 1027.46 1027.46 1027.47 1027.30 1027.00 1026.92 1026.78 1026.55 1026.43 1026.25 1025.97 1025.66 1025.30 1025.10 1024.91 1024.51 1024.05 1023.60 1023.19 1022.84 1022.45 1021.84 1021.60 1021.54 1021.46 1021.15 1020.66 1020.08 1019.42 1018.87 1018.54 1018.36 1018.27 1018.13 1018.10 1018.16 1018.01
1025.95 1026.66 1027.13 1027.43 1027.61 1027.67 1027.70 1027.77 1027.75 1027.46 1027.30 1027.20 1027.14 1027.06 1026.93 1026.65 1026.29 1025.87 1025.54 1025.26 1024.97 1024.67 1024.37 1023.89 1023.43 1023.06 1022.65 1022.30 1022.08 1021.85 1021.66 1021.44 1021.04 1020.54 1020.07 1019.47 1019.13 1018.81 1018.65 1018.49 1018.31 1018.13 1017.94
1026.35 1027.02 1027.50 1027.71 1027.75 1027.80 1027.88 1027.92 1027.85 1027.67 1027.61 1027.64 1027.63 1027.51 1027.24 1026.89 1026.51 1026.13 1025.84 1025.56 1025.16 1024.81 1024.38 1023.96 1023.61 1023.22 1022.86 1022.76 1022.48 1022.25 1022.03 1021.64 1021.30 1020.95 1020.54 1020.15 1019.58 1019.32 1019.09 1018.87 1018.70 1018.53 1018.30
1026.68 1027.31 1027.59 1027.70 1027.78 1027.91 1028.03 1028.23 1028.15 1028.02 1028.00 1028.12 1028.12 1027.77 1027.51 1027.27 1026.90 1026.55 1026.28 1025.94 1025.54 1024.99 1024.57 1024.20 1023.95 1023.91 1023.77 1023.31 1022.90 1022.70 1022.45 1022.12 1021.80 1021.30 1020.77 1020.36 1020.00 1019.58 1019.33 1019.03 1018.88 1018.52 1018.15
1026.98 1027.51 1027.74 1027.77 1027.90 1028.12 1028.26 1028.42 1028.35 1028.29 1028.43 1028.48 1028.16 1027.97 1027.71 1027.40 1027.02 1026.77 1026.45 1026.11 1025.68 1025.20 1024.92 1024.76 1024.70 1024.56 1024.33 1023.88 1023.37 1023.28 1022.88 1022.53 1022.13 1021.67 1021.24 1020.82 1020.48 1020.08 1019.67 1019.38 1019.10 1018.81 1018.40
1027.10 1027.60 1027.87 1027.81 1027.94 1028.11 1028.34 1028.50 1028.50 1028.57 1028.64 1028.41 1028.19 1028.03 1027.82 1027.56 1027.27 1027.05 1026.73 1026.49 1025.96 1025.65 1025.42 1025.28 1025.21 1025.00 1024.67 1024.53 1024.13 1023.67 1023.18 1022.82 1022.45 1022.04 1021.74 1021.38 1020.86 1020.50 1020.24 1020.04 1019.87 1019.48 1018.95
1027.00 1027.44 1027.77 1027.84 1027.93 1028.07 1028.42 1028.61 1028.64 1028.61 1028.60 1028.41 1028.16 1027.84 1027.89 1027.60 1027.43 1027.29 1027.04 1026.66 1026.31 1025.98 1025.82 1025.68 1025.60 1025.45 1025.37 1024.91 1024.39 1023.98 1023.58 1023.10 1022.91 1022.44 1022.33 1022.05 1021.63 1021.33 1021.04 1020.69 1020.34 1019.92 1019.44
1027.00 1027.40 1027.71 1027.89 1027.94 1028.02 1028.32 1028.63 1028.60 1028.58 1028.52 1028.31 1028.09 1027.82 1027.79 1027.60 1027.45 1027.36 1027.16 1026.95 1026.73 1026.46 1026.30 1026.16 1026.01 1025.91 1025.77 1025.72 1025.15 1024.62 1024.22 1023.75 1023.39 1023.16 1023.05 1022.83 1022.55 1022.29 1021.99 1021.60 1021.14 1020.73 1020.24
1026.84 1027.22 1027.61 1027.87 1027.93 1028.03 1028.22 1028.47 1028.48 1028.54 1028.48 1028.25 1027.92 1027.69 1027.57 1027.46 1027.23 1027.22 1027.21 1027.27 1027.32 1027.11 1026.86 1026.71 1026.47 1026.29 1026.20 1025.95 1025.67 1025.25 1025.04 1024.40 1023.95 1023.81 1023.88 1023.63 1023.39 1023.07 1022.87 1022.41 1021.97 1021.60 1021.17
1026.66 1027.03 1027.41 1027.66 1027.83 1028.01 1028.16 1028.29 1028.36 1028.51 1028.54 1028.19 1027.78 1027.52 1027.49 1027.36 1027.29 1027.20 1027.27 1027.39 1027.50 1027.43 1027.29 1027.16 1026.95 1026.68 1026.50 1026.13 1025.70 1025.21 1024.89 1024.54 1024.18 1024.23 1024.22 1024.01 1023.76 1023.51 1023.23 1022.99 1022.71 1022.33 1021.87
1026.57 1026.82 1027.12 1027.36 1027.59 1027.80 1027.95 1028.15 1028.22 1028.39 1028.39 1028.20 1027.86 1027.61 1027.54 1027.37 1027.29 1027.26 1027.32 1027.24 1027.28 1027.29 1027.31 1027.10 1026.83 1026.87 1026.51 1026.11 1025.79 1025.39 1024.93 1024.71 1024.57 1024.67 1024.78 1024.72 1024.53 1024.28 1024.01 1023.69 1023.34 1022.93 1022.46
Wind_Speed
9 10 10 10 9 4 8 5 9 8 4 3 3 2 3 3 2 3 3 4 3 5 5 3 3 3 3 3 4 2 2 3 3 1 5 5 7 6 5 5 4 4 6
10 11 13 13 13 13 6 5 5 7 4 4 3 3 2 2 4 4 4 5 5 5 5 5 4 4 2 4 3 2 1 3 2 2 2 4 5 3 5 4 5 6 4
11 12 12 14 15 15 13 10 8 5 4 4 3 4 4 3 3 2 1 3 5 5 5 5 4 4 3 4 3 3 4 2 4 3 3 3 1 3 2 3 4 5 3
10 11 12 13 13 13 14 15 14 13 11 6 4 3 2 3 3 3 1 3 5 4 5 5 5 5 3 4 4 4 4 3 4 3 3 3 2 1 4 3 3 4 5
9 11 12 12 9 9 9 11 13 14 13 11 8 5 6 4 4 4 5 4 4 2 3 4 6 5 4 5 5 5 4 4 3 3 2 2 3 2 2 4 4 2 4
9 10 10 10 9 9 8 8 9 9 10 9 9 8 8 7 7 7 5 5 4 3 2 3 3 4 3 4 4 5 5 5 4 3 4 3 3 3 3 4 5 5 6
8 8 8 8 9 10 9 10 9 9 8 8 8 8 8 8 8 6 5 6 5 4 7 6 6 3 4 5 4 4 5 5 3 4 4 4 4 3 3 2 3 4 3
7 8 8 8 8 8 9 9 9 10 9 8 8 7 8 5 5 5 5 4 4 5 7 7 7 7 7 5 4 3 4 4 4 6 5 4 5 3 3 4 2 4 3
7 8 8 7 8 8 9 9 9 9 9 8 7 8 8 7 6 7 5 4 5 5 7 7 7 7 7 7 6 3 4 4 5 6 6 5 5 4 4 3 4 4 4
7 7 7 7 7 7 7 8 8 9 9 9 7 7 8 8 7 7 7 7 6 7 7 7 7 7 7 7 7 5 5 5 5 4 6 5 4 5 5 4 4 3 4
6 6 6 7 7 7 8 7 8 8 8 8 8 8 7 8 8 7 7 7 7 7 7 7 7 7 7 8 7 8 8 7 6 5 5 6 6 4 4 3 4 4 4
5 5 7 7 7 7 7 7 7 7 7 7 7 7 8 8 9 9 9 8 7 7 7 7 7 6 7 7 7 9 10 10 9 7 7 6 5 6 5 4 5 4 5
6 7 7 7 7 7 7 7 7 7 7 7 7 7 7 7 7 8 10 11 11 9 8 7 7 7 6 6 7 7 9 10 10 8 7 7 6 6 5 5 4 4 6
7 7 7 7 7 7 7 7 7 7 7 7 7 7 7 7 6 7 8 9 9 10 11 10 7 7 7 6 7 6 6 8 10 10 7 7 6 5 5 5 5 6 5
6 6 6 5 6 6 6 6 6 6 6 7 7 7 6 6 6 6 6 7 8 9 8 9 9 8 7 5 5 6 6 7 9 9 10 6 8 11 8 3 5 5 4
6 6 5 6 6 6 6 6 6 6 6 6 6 6 8 9 8 7 6 6 7 7 7 8 7 7 8 15 14 11 7 9 9 9 9 6 7 8 12 14 14 11 7
6 5 5 5 5 5 5 6 6 6 6 6 8 9 9 8 7 7 7 6 6 6 6 7 6 6 6 16 16 16 7 9 11 10 9 10 10 9 8 12 13 12 17
6 5 4 3 4 4 5 6 6 6 6 6 8 8 8 8 9 8 7 7 6 6 6 6 6 6 6 17 18 19 10 8 9 9 10 10 10 10 10 8 7 7 9
5 2 2 3 3 5 5 6 6 6 6 8 8 8 8 9 9 7 7 7 7 6 6 6 9 10 10 19 19 16 9 9 10 10 11 10 8 19 19 11 8 8 9
4 3 4 3 4 4 5 5 5 5 6 6 6 6 7 8 9 8 8 7 7 6 6 8 8 12 10 18 21 15 6 8 8 9 10 18 17 18 18 11 11 10 11
2 2 3 3 3 4 4 5 5 5 5 6 4 5 7 7 6 7 6 6 6 6 6 7 7 8 12 11 17 17 8 7 7 7 8 8 21 21 20 18 10 12 11
0 1 1 2 2 3 3 5 4 4 4 6 4 4 4 5 5 6 6 6 6 6 6 6 6 5 7 15 16 18 19 16 8 9 8 10 21 21 21 15 21 19 14
1 1 1 2 4 3 3 3 3 4 5 6 3 4 3 5 4 5 5 5 6 4 5 4 3 4 4 6 17 17 19 17 8 9 14 19 20 20 15 22 22 17 9
2 1 1 4 4 2 2 3 3 4 5 6 2 5 1 4 1 3 3 3 5 5 4 5 4 4 5 5 5 5 5 11 7 10 9 13 14 17 14 12 12 9 9
1 2 3 3 3 1 1 3 2 3 4 5 5 1 4 2 3 2 3 2 3 3 3 3 4 4 3 6 12 10 4 5 9 7 3 4 6 7 8 8 8 8 8
4 4 5 4 4 2 1 2 2 2 3 4 4 2 2 3 2 2 1 3 4 3 2 6 4 3 8 12 13 14 12 14 15 5 4 4 4 6 7 7 8 8 11
Wind_Direction
27 21 6 354 334 226 270 136 136 160 148 137 162 164 184 191 197 204 221 205 197 181 182 221 263 224 184 241 238 218 254 302 262 345 304 268 234 231 214 210 225 230 198
31 30 18 7 6 8 40 31 123 143 149 148 174 161 175 203 185 189 193 209 205 206 185 195 223 245 202 232 250 245 279 291 254 187 284 319 344 319 226 203 205 227 210
40 34 30 21 15 16 10 15 35 91 93 77 61 41 38 19 11 334 234 225 213 213 208 218 213 228 206 208 233 213 195 228 310 225 170 338 273 322 331 248 215 215 231
48 44 39 39 27 17 20 24 32 27 25 49 23 118 176 222 229 209 219 234 220 222 219 215 223 242 240 212 217 224 201 170 240 321 239 221 185 322 335 320 253 221 232
50 50 44 40 35 26 25 34 36 34 25 27 25 25 20 9 356 22 16 346 321 240 257 231 226 231 233 239 219 228 218 200 199 216 270 269 257 242 192 282 309 339 252
52 50 49 40 34 23 32 34 48 42 33 32 27 35 35 17 24 9 2 350 342 333 309 264 276 284 280 247 238 237 236 229 219 224 240 222 215 226 222 248 268 254 271
59 52 50 48 35 27 29 42 34 36 42 39 35 34 36 42 41 20 16 15 4 5 358 359 348 314 270 263 266 261 243 235 222 217 230 235 243 224 230 224 270 264 292
71 57 51 45 50 40 33 31 35 32 27 25 26 27 37 38 34 27 26 17 17 352 0 351 345 334 327 319 286 246 247 246 249 245 236 236 246 237 222 213 213 300 296
69 67 56 51 48 42 41 35 32 27 20 19 24 18 18 28 33 24 20 14 5 359 359 357 350 349 343 330 321 309 286 270 254 245 240 230 238 243 246 237 198 191 275
76 74 66 58 45 39 39 36 35 31 14 9 19 24 14 11 16 24 16 10 0 4 6 358 356 359 356 352 346 322 300 287 276 260 260 251 241 236 234 232 231 212 211
82 72 67 64 61 46 36 35 32 26 16 3 3 18 14 10 7 11 4 2 360 357 5 1 0 4 358 346 5 359 357 346 326 314 299 289 273 262 259 256 238 229 213
101 88 79 65 48 42 35 28 28 23 14 356 2 9 15 10 6 1 356 354 354 350 351 359 358 4 354 354 24 8 356 353 344 336 339 323 317 291 256 244 247 237 238
78 62 51 54 45 37 28 20 22 13 5 350 355 1 21 10 360 356 356 353 350 346 349 351 350 353 352 4 22 18 358 344 334 332 334 324 328 320 316 304 269 252 252
81 63 46 43 39 39 29 14 13 5 356 348 351 5 14 3 358 357 353 343 343 352 346 340 344 348 346 20 20 6 351 340 329 323 316 314 323 339 331 320 323 326 329
89 77 60 37 34 32 22 7 9 356 346 348 349 352 359 0 356 348 342 340 345 337 334 342 346 345 340 35 10 4 350 327 314 312 313 318 328 336 350 332 319 322 320
94 62 45 31 28 18 10 5 360 344 341 348 333 358 1 357 348 337 335 340 329 326 339 338 335 349 345 339 357 5 344 320 307 301 299 315 329 357 29 13 10 5 352
76 55 46 37 18 4 7 6 348 329 354 343 12 4 352 341 333 332 334 333 321 342 326 315 332 340 325 17 11 360 357 351 353 359 3 1 2 30 20 7 0 349 339
85 55 38 26 358 356 19 3 343 341 354 15 5 354 345 340 340 334 343 343 328 313 303 316 328 330 30 22 15 13 353 341 340 353 353 355 334 10 11 3 357 350 341
86 84 43 19 355 27 28 4 331 357 20 16 354 338 356 347 338 346 342 336 334 325 349 344 26 36 30 22 16 16 355 353 349 347 346 346 348 348 355 352 334 325 315
77 42 360 342 26 28 33 342 357 15 24 349 316 1 335 340 337 348 337 337 337 360 6 40 34 40 29 20 22 11 358 356 350 349 354 355 349 344 357 11 6 349 347
51 50 313 339 34 53 28 340 354 26 360 313 14 338 8 337 360 353 353 347 6 16 26 43 41 37 30 19 15 18 15 8 5 2 8 9 13 17 18 19 4 2 2
284 284 345 337 2 75 36 343 349 12 344 310 356 335 20 342 16 5 359 10 14 20 27 40 28 25 39 13 17 18 21 19 16 16 19 11 18 21 20 19 12 15 12
188 261 223 298 270 117 94 315 333 354 335 313 9 329 48 326 78 12 8 14 8 4 37 31 23 356 36 17 12 14 18 16 20 24 22 22 22 24 21 21 19 14 10
175 152 273 265 274 97 80 298 18 348 338 310 10 308 103 317 9 116 10 60 13 3 7 9 3 17 21 360 358 359 356 359 358 31 26 22 22 25 20 18 14 9 12
186 186 230 270 288 345 299 328 62 354 323 310 299 38 334 336 14 45 105 74 76 35 6 13 3 14 359 360 9 6 7 1 16 31 6 3 11 9 10 10 6 4 5
239 215 221 241 246 257 245 314 93 327 306 304 315 3 332 330 27 4 148 170 167 138 58 12 31 7 4 7 8 9 13 21 26 15 4 2 358 1 0 1 360 358 356